| time (UTC) | temp C | wind direction | speed KPH | gust KPH | rain 1hr cm | rain 24hr cm | rain mn cm | humidity % | barometer mb |
| 20260510132749 | 17 | 231 | 3.2 | 3.2 | 0.00 | 0.00 | 0.00 | 75 | 1016.5 |
| 20260510131517 | 16 | 232 | 3.2 | 4.8 | 0.00 | 0.00 | 0.00 | 77 | 1016.9 |
| 20260510130920 | 16 | 250 | 9.7 | 11.3 | 0.00 | 0.00 | 0.00 | 75 | 1016.5 |
| 20260510130331 | 16 | 238 | 6.4 | 6.4 | 0.00 | 0.00 | 0.00 | 79 | 1016.9 |
| 20260510125751 | 16 | 222 | 1.6 | 4.8 | 0.00 | 0.00 | 0.00 | 80 | 1016.9 |
| 20260510125144 | 16 | 104 | 3.2 | 1.6 | 0.00 | 0.00 | 0.00 | 82 | 1016.5 |
| 20260510123308 | 15 | 102 | 1.6 | 1.6 | 0.00 | 0.00 | 0.00 | 86 | 1016.5 |
| 20260510122730 | 14 | 104 | 0.0 | 0.0 | 0.00 | 0.00 | 0.00 | 89 | 1016.5 |
| 20260510122134 | 13 | 104 | 0.0 | 1.6 | 0.00 | 0.00 | 0.00 | 89 | 1016.5 |
| 20260510121511 | 14 | 104 | 0.0 | 1.6 | 0.00 | 0.00 | 0.00 | 88 | 1016.5 |
| 20260510120949 | 13 | 104 | 0.0 | 0.0 | 0.00 | 0.00 | 0.00 | 89 | 1016.5 |
| 20260510115743 | 12 | 104 | 0.0 | 0.0 | 0.00 | 0.00 | 0.00 | 93 | 1016.2 |
| 20260510114518 | 11 | 105 | 0.0 | 0.0 | 0.00 | 0.00 | 0.00 | 97 | 1015.9 |
| 20260510113914 | 11 | 105 | 0.0 | 0.0 | 0.00 | 0.00 | 0.00 | 98 | 1015.9 |
| 20260510112710 | 10 | 104 | 0.0 | 0.0 | 0.00 | 0.00 | 0.00 | 99 | 1015.9 |
| 20260510112131 | 10 | 104 | 1.6 | 1.6 | 0.00 | 0.00 | 0.00 | 99 | 1015.9 |
| 20260510111532 | 9 | 106 | 1.6 | 1.6 | 0.00 | 0.00 | 0.00 | 99 | 1015.5 |
| 20260510110933 | 8 | 109 | 0.0 | 0.0 | 0.00 | 0.00 | 0.00 | 98 | 1015.5 |
| 20260510110312 | 8 | 109 | 0.0 | 0.0 | 0.00 | 0.00 | 0.00 | 98 | 1015.2 |
| 20260510105747 | 8 | 109 | 1.6 | 0.0 | 0.00 | 0.00 | 0.00 | 98 | 1015.2 |
| 20260510105143 | 8 | 109 | 0.0 | 0.0 | 0.00 | 0.00 | 0.00 | 98 | 1014.9 |
| 20260510103935 | 8 | 109 | 1.6 | 3.2 | 0.00 | 0.00 | 0.00 | 98 | 1014.9 |
| 20260510103324 | 8 | 109 | 0.0 | 1.6 | 0.00 | 0.00 | 0.00 | 98 | 1014.9 |
| 20260510102717 | 8 | 109 | 0.0 | 0.0 | 0.00 | 0.00 | 0.00 | 98 | 1014.9 |
| 20260510102142 | 8 | 109 | 0.0 | 0.0 | 0.00 | 0.00 | 0.00 | 98 | 1014.9 |
| 20260510101511 | 8 | 109 | 1.6 | 1.6 | 0.00 | 0.00 | 0.00 | 98 | 1014.9 |
| 20260510100351 | 8 | 109 | 1.6 | 1.6 | 0.00 | 0.00 | 0.00 | 98 | 1014.5 |
| 20260510095710 | 8 | 109 | 0.0 | 0.0 | 0.00 | 0.00 | 0.00 | 98 | 1014.5 |
| 20260510095139 | 8 | 110 | 0.0 | 0.0 | 0.00 | 0.00 | 0.00 | 98 | 1014.2 |
| 20260510094539 | 8 | 109 | 0.0 | 0.0 | 0.00 | 0.00 | 0.00 | 98 | 1013.8 |
| 20260510093908 | 8 | 109 | 0.0 | 1.6 | 0.00 | 0.00 | 0.00 | 98 | 1014.2 |
| 20260510093327 | 8 | 109 | 1.6 | 1.6 | 0.00 | 0.00 | 0.00 | 98 | 1014.2 |
| 20260510092725 | 8 | 109 | 0.0 | 1.6 | 0.00 | 0.00 | 0.00 | 98 | 1014.2 |
| 20260510092129 | 8 | 109 | 0.0 | 0.0 | 0.00 | 0.00 | 0.00 | 98 | 1014.2 |
| 20260510091537 | 8 | 109 | 0.0 | 0.0 | 0.00 | 0.00 | 0.00 | 98 | 1013.8 |
| 20260510090909 | 8 | 110 | 0.0 | 0.0 | 0.00 | 0.00 | 0.00 | 98 | 1014.2 |
| 20260510090341 | 8 | 110 | 0.0 | 0.0 | 0.00 | 0.00 | 0.00 | 98 | 1014.2 |
| 20260510085716 | 8 | 109 | 0.0 | 0.0 | 0.00 | 0.00 | 0.00 | 98 | 1014.2 |
| 20260510083948 | 9 | 109 | 0.0 | 1.6 | 0.00 | 0.00 | 0.00 | 98 | 1013.8 |
| 20260510083352 | 9 | 109 | 0.0 | 0.0 | 0.00 | 0.00 | 0.00 | 98 | 1013.8 |
| 20260510082744 | 9 | 109 | 0.0 | 0.0 | 0.00 | 0.00 | 0.00 | 98 | 1013.8 |
| 20260510082119 | 9 | 109 | 1.6 | 1.6 | 0.00 | 0.00 | 0.00 | 98 | 1013.5 |
| 20260510081549 | 9 | 109 | 0.0 | 0.0 | 0.00 | 0.00 | 0.00 | 97 | 1013.8 |
| 20260510080918 | 10 | 108 | 1.6 | 4.8 | 0.00 | 0.00 | 0.00 | 97 | 1013.5 |
| 20260510080327 | 10 | 144 | 1.6 | 1.6 | 0.00 | 0.00 | 0.00 | 97 | 1013.5 |
| 20260510075750 | 10 | 162 | 3.2 | 3.2 | 0.00 | 0.00 | 0.00 | 97 | 1013.5 |
| 20260510074542 | 10 | 132 | 0.0 | 3.2 | 0.00 | 0.00 | 0.00 | 97 | 1013.5 |
| 20260510073942 | 10 | 126 | 1.6 | 4.8 | 0.00 | 0.00 | 0.00 | 97 | 1013.5 |
| 20260510073347 | 10 | 133 | 4.8 | 4.8 | 0.00 | 0.00 | 0.00 | 97 | 1013.5 |
| 20260510072734 | 10 | 118 | 0.0 | 1.6 | 0.00 | 0.00 | 0.00 | 97 | 1013.5 |
| 20260510072126 | 10 | 117 | 3.2 | 3.2 | 0.00 | 0.00 | 0.00 | 97 | 1013.5 |
| 20260510071546 | 10 | 118 | 0.0 | 1.6 | 0.00 | 0.00 | 0.00 | 97 | 1013.2 |
| 20260510070925 | 10 | 118 | 0.0 | 1.6 | 0.00 | 0.00 | 0.00 | 97 | 1013.5 |
| 20260510070312 | 10 | 107 | 3.2 | 3.2 | 0.00 | 0.00 | 0.00 | 97 | 1013.2 |
| 20260510065734 | 10 | 127 | 1.6 | 4.8 | 0.00 | 0.00 | 0.00 | 97 | 1013.2 |
| 20260510065141 | 10 | 163 | 0.0 | 1.6 | 0.00 | 0.00 | 0.00 | 96 | 1013.5 |
| 20260510063923 | 10 | 100 | 1.6 | 3.2 | 0.00 | 0.00 | 0.00 | 97 | 1013.5 |
| 20260510063330 | 10 | 100 | 1.6 | 3.2 | 0.00 | 0.00 | 0.00 | 96 | 1013.5 |
| 20260510062709 | 10 | 121 | 0.0 | 1.6 | 0.00 | 0.00 | 0.00 | 96 | 1013.5 |
| 20260510062146 | 11 | 120 | 0.0 | 3.2 | 0.00 | 0.00 | 0.00 | 96 | 1013.5 |
| 20260510061534 | 10 | 107 | 1.6 | 3.2 | 0.00 | 0.00 | 0.00 | 96 | 1013.5 |
| 20260510060949 | 10 | 123 | 0.0 | 3.2 | 0.00 | 0.00 | 0.00 | 96 | 1013.5 |
| 20260510060341 | 10 | 123 | 0.0 | 3.2 | 0.00 | 0.00 | 0.00 | 95 | 1013.5 |
| 20260510055725 | 11 | 123 | 0.0 | 1.6 | 0.00 | 0.00 | 0.00 | 96 | 1013.5 |
| 20260510055118 | 10 | 125 | 4.8 | 4.8 | 0.00 | 0.00 | 0.00 | 96 | 1013.5 |
| 20260510054538 | 11 | 139 | 1.6 | 1.6 | 0.00 | 0.00 | 0.00 | 95 | 1013.8 |
| 20260510053314 | 11 | 212 | 3.2 | 4.8 | 0.00 | 0.00 | 0.00 | 95 | 1013.8 |
| 20260510052149 | 11 | 212 | 1.6 | 3.2 | 0.00 | 0.00 | 0.00 | 96 | 1013.8 |
| 20260510051548 | 11 | 212 | 4.8 | 4.8 | 0.00 | 0.00 | 0.00 | 96 | 1013.8 |
| 20260510050912 | 11 | 212 | 3.2 | 3.2 | 0.00 | 0.00 | 0.00 | 96 | 1014.2 |
| 20260510050332 | 11 | 212 | 1.6 | 1.6 | 0.00 | 0.00 | 0.00 | 96 | 1013.8 |
| 20260510045721 | 11 | 212 | 1.6 | 3.2 | 0.00 | 0.00 | 0.00 | 96 | 1013.8 |
| 20260510045110 | 11 | 212 | 1.6 | 1.6 | 0.00 | 0.00 | 0.00 | 95 | 1013.8 |
| 20260510043931 | 11 | 212 | 1.6 | 1.6 | 0.00 | 0.00 | 0.00 | 96 | 1013.8 |
| 20260510043338 | 11 | 212 | 0.0 | 1.6 | 0.00 | 0.00 | 0.00 | 96 | 1013.8 |
| 20260510042711 | 11 | 213 | 1.6 | 1.6 | 0.00 | 0.00 | 0.00 | 96 | 1013.8 |
| 20260510042145 | 11 | 213 | 1.6 | 1.6 | 0.00 | 0.00 | 0.00 | 97 | 1013.8 |
| 20260510041533 | 11 | 213 | 0.0 | 1.6 | 0.00 | 0.00 | 0.00 | 97 | 1013.8 |
| 20260510040924 | 11 | 213 | 1.6 | 1.6 | 0.00 | 0.00 | 0.00 | 97 | 1013.8 |
| 20260510040343 | 10 | 213 | 1.6 | 3.2 | 0.00 | 0.00 | 0.00 | 97 | 1013.5 |
| 20260510035747 | 10 | 213 | 0.0 | 1.6 | 0.00 | 0.00 | 0.05 | 97 | 1013.5 |
| 20260510035123 | 10 | 213 | 0.0 | 0.0 | 0.00 | 0.00 | 0.05 | 97 | 1013.8 |
| 20260510034541 | 10 | 213 | 0.0 | 0.0 | 0.00 | 0.00 | 0.05 | 97 | 1013.8 |
| 20260510033910 | 10 | 212 | 0.0 | 0.0 | 0.00 | 0.00 | 0.05 | 96 | 1013.5 |
| 20260510033316 | 11 | 213 | 0.0 | 1.6 | 0.00 | 0.00 | 0.05 | 96 | 1013.5 |
| 20260510032752 | 11 | 212 | 0.0 | 0.0 | 0.00 | 0.00 | 0.05 | 96 | 1013.5 |
| 20260510032147 | 11 | 212 | 0.0 | 0.0 | 0.00 | 0.00 | 0.05 | 96 | 1013.2 |
| 20260510031524 | 11 | 212 | 0.0 | 0.0 | 0.00 | 0.00 | 0.05 | 96 | 1013.2 |
| 20260510030919 | 11 | 213 | 0.0 | 0.0 | 0.00 | 0.00 | 0.05 | 95 | 1013.2 |
| 20260510030328 | 11 | 212 | 0.0 | 0.0 | 0.00 | 0.00 | 0.05 | 95 | 1013.2 |
| 20260510025732 | 11 | 212 | 0.0 | 0.0 | 0.00 | 0.00 | 0.05 | 95 | 1013.2 |
| 20260510025123 | 11 | 212 | 0.0 | 0.0 | 0.00 | 0.00 | 0.05 | 95 | 1013.2 |
| 20260510023940 | 11 | 212 | 1.6 | 3.2 | 0.00 | 0.00 | 0.05 | 95 | 1013.2 |
| 20260510022739 | 11 | 213 | 0.0 | 0.0 | 0.00 | 0.00 | 0.05 | 94 | 1013.2 |
| 20260510021510 | 12 | 213 | 0.0 | 0.0 | 0.00 | 0.00 | 0.05 | 94 | 1012.8 |
| 20260510020952 | 12 | 213 | 0.0 | 0.0 | 0.00 | 0.00 | 0.05 | 93 | 1012.8 |
| 20260510015740 | 12 | 213 | 0.0 | 0.0 | 0.00 | 0.00 | 0.05 | 92 | 1012.5 |
| 20260510015143 | 12 | 213 | 0.0 | 0.0 | 0.00 | 0.00 | 0.05 | 91 | 1012.8 |
| 20260510014511 | 12 | 213 | 0.0 | 0.0 | 0.00 | 0.00 | 0.05 | 91 | 1012.5 |
| 20260510013946 | 12 | 213 | 0.0 | 0.0 | 0.00 | 0.00 | 0.05 | 90 | 1012.5 |
| 20260510012725 | 13 | 213 | 0.0 | 0.0 | 0.00 | 0.00 | 0.05 | 89 | 1012.1 |
| 20260510012131 | 13 | 213 | 0.0 | 0.0 | 0.00 | 0.00 | 0.05 | 88 | 1012.1 |
| 20260510011556 | 13 | 213 | 1.6 | 1.6 | 0.00 | 0.00 | 0.05 | 86 | 1012.1 |
| 20260510010951 | 14 | 213 | 0.0 | 0.0 | 0.00 | 0.00 | 0.05 | 84 | 1011.8 |
| 20260510010348 | 14 | 213 | 0.0 | 1.6 | 0.00 | 0.00 | 0.05 | 83 | 1011.8 |
| 20260510005143 | 15 | 213 | 0.0 | 0.0 | 0.00 | 0.00 | 0.05 | 79 | 1011.5 |
| 20260510004550 | 15 | 213 | 1.6 | 1.6 | 0.00 | 0.00 | 0.05 | 79 | 1011.5 |
| 20260510003307 | 16 | 214 | 0.0 | 0.0 | 0.00 | 0.00 | 0.05 | 76 | 1011.5 |
| 20260510002716 | 17 | 214 | 0.0 | 0.0 | 0.00 | 0.00 | 0.05 | 71 | 1011.1 |
| 20260510001511 | 17 | 214 | 0.0 | 1.6 | 0.00 | 0.00 | 0.05 | 67 | 1011.1 |
| 20260510000943 | 18 | 214 | 1.6 | 3.2 | 0.00 | 0.00 | 0.05 | 65 | 1011.1 |
| 20260510000349 | 18 | 206 | 1.6 | 1.6 | 0.00 | 0.00 | 0.05 | 63 | 1011.1 |
| 20260509235710 | 18 | 233 | 3.2 | 3.2 | 0.00 | 0.00 | 0.05 | 62 | 1011.1 |
| 20260509235126 | 18 | 229 | 3.2 | 4.8 | 0.00 | 0.00 | 0.05 | 63 | 1011.1 |
| 20260509234543 | 20 | 233 | 4.8 | 6.4 | 0.00 | 0.00 | 0.05 | 59 | 1010.8 |
| 20260509233949 | 20 | 242 | 6.4 | 9.7 | 0.00 | 0.00 | 0.05 | 58 | 1011.1 |
| 20260509233339 | 20 | 237 | 4.8 | 6.4 | 0.00 | 0.00 | 0.05 | 58 | 1011.1 |
| 20260509232130 | 20 | 236 | 9.7 | 11.3 | 0.00 | 0.00 | 0.05 | 56 | 1011.1 |
| 20260509231509 | 20 | 233 | 6.4 | 12.9 | 0.00 | 0.00 | 0.05 | 56 | 1010.8 |
| 20260509230951 | 21 | 243 | 8.0 | 17.7 | 0.00 | 0.00 | 0.05 | 55 | 1011.1 |
| 20260509230332 | 21 | 228 | 8.0 | 14.5 | 0.00 | 0.00 | 0.05 | 54 | 1010.8 |
| 20260509225146 | 21 | 241 | 14.5 | 16.1 | 0.00 | 0.00 | 0.05 | 53 | 1011.1 |
| 20260509224535 | 21 | 259 | 6.4 | 11.3 | 0.00 | 0.00 | 0.05 | 51 | 1011.1 |
| 20260509223928 | 21 | 237 | 11.3 | 14.5 | 0.00 | 0.00 | 0.05 | 50 | 1011.1 |
| 20260509223343 | 21 | 254 | 12.9 | 16.1 | 0.00 | 0.00 | 0.05 | 51 | 1011.1 |
| 20260509222130 | 22 | 258 | 9.7 | 12.9 | 0.00 | 0.00 | 0.05 | 51 | 1011.1 |
| 20260509220917 | 22 | 255 | 4.8 | 6.4 | 0.00 | 0.00 | 0.05 | 51 | 1011.5 |
| 20260509220325 | 21 | 247 | 8.0 | 12.9 | 0.00 | 0.00 | 0.05 | 50 | 1011.1 |
| 20260509215723 | 21 | 222 | 9.7 | 11.3 | 0.00 | 0.00 | 0.05 | 51 | 1011.5 |
| 20260509215134 | 21 | 260 | 9.7 | 11.3 | 0.00 | 0.00 | 0.05 | 52 | 1011.5 |
| 20260509214520 | 22 | 256 | 8.0 | 12.9 | 0.00 | 0.00 | 0.05 | 51 | 1011.1 |
| 20260509213334 | 20 | 259 | 11.3 | 16.1 | 0.00 | 0.00 | 0.05 | 52 | 1011.5 |
| 20260509212738 | 21 | 235 | 9.7 | 16.1 | 0.00 | 0.00 | 0.05 | 52 | 1011.1 |
| 20260509212145 | 22 | 255 | 12.9 | 16.1 | 0.00 | 0.00 | 0.05 | 53 | 1011.1 |
| 20260509211542 | 21 | 256 | 9.7 | 14.5 | 0.00 | 0.00 | 0.05 | 54 | 1011.5 |
| 20260509210931 | 21 | 216 | 3.2 | 4.8 | 0.00 | 0.00 | 0.05 | 55 | 1011.5 |
| 20260509210318 | 21 | 250 | 12.9 | 17.7 | 0.00 | 0.00 | 0.05 | 55 | 1011.5 |
| 20260509205747 | 22 | 243 | 12.9 | 14.5 | 0.00 | 0.00 | 0.05 | 56 | 1011.5 |
| 20260509205134 | 21 | 238 | 12.9 | 14.5 | 0.00 | 0.00 | 0.05 | 53 | 1011.5 |
| 20260509204537 | 21 | 230 | 6.4 | 6.4 | 0.00 | 0.00 | 0.05 | 58 | 1011.5 |
| 20260509203950 | 20 | 333 | 3.2 | 9.7 | 0.00 | 0.00 | 0.05 | 63 | 1011.5 |
| 20260509203321 | 20 | 260 | 11.3 | 14.5 | 0.00 | 0.00 | 0.05 | 54 | 1011.5 |
| 20260509202753 | 20 | 254 | 11.3 | 14.5 | 0.00 | 0.00 | 0.05 | 56 | 1011.1 |
| 20260509202126 | 20 | 235 | 9.7 | 11.3 | 0.00 | 0.00 | 0.05 | 58 | 1011.5 |
| 20260509201532 | 20 | 252 | 9.7 | 12.9 | 0.00 | 0.00 | 0.05 | 58 | 1011.5 |
| 20260509200939 | 20 | 260 | 8.0 | 14.5 | 0.00 | 0.00 | 0.05 | 58 | 1011.8 |
| 20260509200309 | 20 | 249 | 11.3 | 16.1 | 0.00 | 0.00 | 0.05 | 56 | 1011.8 |
| 20260509195125 | 20 | 254 | 9.7 | 14.5 | 0.00 | 0.00 | 0.05 | 57 | 1012.1 |
| 20260509193915 | 21 | 237 | 9.7 | 11.3 | 0.00 | 0.00 | 0.05 | 56 | 1012.1 |
| 20260509193337 | 21 | 265 | 14.5 | 16.1 | 0.00 | 0.00 | 0.05 | 59 | 1012.1 |
| 20260509192748 | 21 | 246 | 9.7 | 12.9 | 0.00 | 0.00 | 0.05 | 55 | 1012.1 |
| 20260509191527 | 20 | 254 | 9.7 | 12.9 | 0.00 | 0.00 | 0.05 | 58 | 1012.1 |
| 20260509190313 | 19 | 252 | 11.3 | 14.5 | 0.00 | 0.00 | 0.05 | 62 | 1012.1 |
| 20260509185750 | 19 | 245 | 9.7 | 11.3 | 0.00 | 0.00 | 0.05 | 59 | 1011.8 |
| 20260509185114 | 18 | 262 | 1.6 | 1.6 | 0.00 | 0.00 | 0.05 | 62 | 1012.1 |
| 20260509184531 | 18 | 236 | 11.3 | 12.9 | 0.00 | 0.00 | 0.05 | 61 | 1012.1 |
| 20260509183936 | 18 | 247 | 6.4 | 11.3 | 0.00 | 0.00 | 0.05 | 65 | 1011.8 |
| 20260509183343 | 17 | 244 | 6.4 | 12.9 | 0.00 | 0.00 | 0.05 | 66 | 1012.1 |
| 20260509182727 | 17 | 225 | 6.4 | 16.1 | 0.00 | 0.00 | 0.05 | 65 | 1012.1 |
| 20260509182153 | 17 | 258 | 8.0 | 9.7 | 0.00 | 0.00 | 0.05 | 63 | 1012.1 |
| 20260509181515 | 17 | 231 | 6.4 | 9.7 | 0.00 | 0.00 | 0.05 | 66 | 1012.1 |
| 20260509180941 | 17 | 248 | 6.4 | 11.3 | 0.00 | 0.00 | 0.05 | 61 | 1012.1 |
| 20260509180315 | 17 | 233 | 6.4 | 6.4 | 0.00 | 0.00 | 0.05 | 67 | 1012.1 |
| 20260509175737 | 17 | 235 | 9.7 | 12.9 | 0.00 | 0.00 | 0.05 | 66 | 1012.1 |
| 20260509175152 | 17 | 257 | 4.8 | 6.4 | 0.00 | 0.00 | 0.05 | 63 | 1012.1 |
| 20260509174526 | 17 | 215 | 3.2 | 11.3 | 0.00 | 0.00 | 0.05 | 67 | 1012.1 |
| 20260509173310 | 16 | 249 | 9.7 | 12.9 | 0.00 | 0.00 | 0.05 | 71 | 1012.1 |
| 20260509172726 | 15 | 221 | 3.2 | 4.8 | 0.00 | 0.00 | 0.05 | 75 | 1012.5 |
| 20260509171510 | 16 | 330 | 4.8 | 6.4 | 0.00 | 0.00 | 0.05 | 73 | 1012.5 |
| 20260509170921 | 16 | 217 | 3.2 | 9.7 | 0.00 | 0.00 | 0.05 | 76 | 1012.5 |
| 20260509170323 | 15 | 193 | 1.6 | 1.6 | 0.00 | 0.00 | 0.05 | 78 | 1012.5 |
| 20260509165719 | 15 | 208 | 1.6 | 3.2 | 0.00 | 0.00 | 0.05 | 83 | 1012.5 |
| 20260509165132 | 15 | 120 | 0.0 | 0.0 | 0.00 | 0.00 | 0.05 | 83 | 1012.8 |
| 20260509164539 | 15 | 112 | 0.0 | 1.6 | 0.00 | 0.00 | 0.05 | 79 | 1013.2 |
| 20260509163934 | 15 | 111 | 0.0 | 0.0 | 0.00 | 0.00 | 0.05 | 84 | 1012.8 |
| 20260509162115 | 15 | 112 | 0.0 | 3.2 | 0.00 | 0.00 | 0.05 | 82 | 1012.8 |
| 20260509161540 | 15 | 111 | 0.0 | 0.0 | 0.00 | 0.00 | 0.05 | 82 | 1013.2 |
| 20260509160930 | 15 | 111 | 0.0 | 1.6 | 0.00 | 0.00 | 0.05 | 81 | 1013.2 |
| 20260509160345 | 14 | 109 | 1.6 | 1.6 | 0.00 | 0.00 | 0.05 | 83 | 1012.8 |
| 20260509155716 | 14 | 109 | 1.6 | 1.6 | 0.00 | 0.00 | 0.05 | 83 | 1012.8 |
| 20260509154540 | 14 | 112 | 1.6 | 1.6 | 0.00 | 0.00 | 0.05 | 84 | 1012.5 |
| 20260509153940 | 14 | 112 | 1.6 | 1.6 | 0.00 | 0.00 | 0.05 | 84 | 1012.5 |
| 20260509153324 | 15 | 112 | 1.6 | 1.6 | 0.00 | 0.00 | 0.05 | 83 | 1012.8 |
| 20260509152127 | 14 | 213 | 0.0 | 0.0 | 0.00 | 0.00 | 0.05 | 82 | 1012.8 |
| 20260509150915 | 14 | 210 | 1.6 | 1.6 | 0.00 | 0.00 | 0.05 | 86 | 1012.8 |
| 20260509150315 | 14 | 213 | 3.2 | 3.2 | 0.00 | 0.00 | 0.05 | 83 | 1012.8 |
| 20260509145740 | 14 | 206 | 1.6 | 1.6 | 0.00 | 0.00 | 0.05 | 86 | 1012.5 |
| 20260509145127 | 14 | 160 | 0.0 | 1.6 | 0.00 | 0.00 | 0.05 | 87 | 1012.1 |
| 20260509144508 | 14 | 160 | 0.0 | 0.0 | 0.00 | 0.00 | 0.05 | 87 | 1012.5 |
| 20260509143907 | 14 | 160 | 0.0 | 0.0 | 0.00 | 0.00 | 0.05 | 88 | 1012.8 |
| 20260509142746 | 13 | 159 | 0.0 | 0.0 | 0.00 | 0.00 | 0.05 | 86 | 1012.5 |
| 20260509141517 | 13 | 151 | 3.2 | 1.6 | 0.00 | 0.00 | 0.05 | 92 | 1012.5 |
| 20260509140924 | 13 | 147 | 0.0 | 1.6 | 0.00 | 0.00 | 0.05 | 90 | 1012.5 |
| 20260509140344 | 13 | 157 | 0.0 | 1.6 | 0.00 | 0.00 | 0.05 | 93 | 1012.5 |
| 20260509135710 | 12 | 158 | 0.0 | 1.6 | 0.00 | 0.00 | 0.05 | 93 | 1012.8 |
| 20260509135112 | 12 | 157 | 0.0 | 1.6 | 0.00 | 0.00 | 0.05 | 93 | 1012.5 |
| 20260509134545 | 12 | 156 | 1.6 | 1.6 | 0.00 | 0.00 | 0.05 | 92 | 1012.8 |
| 20260509133914 | 12 | 157 | 0.0 | 3.2 | 0.00 | 0.00 | 0.05 | 91 | 1012.8 |